AMC-11 (GE-11)

Last updated on Sun May 19 2024 00:02:37 GMT+0000 (Coordinated Universal Time)

1 28252U 04017A 24139.44841635 -.00000036 00000+0 00000+0 0 9993 2 28252 0.0366 58.2928 0000564 157.3619 71.2673 1.00255737 73250
UTC large
Height (km)
Speed (km/s)
/
Latitude / Longitude
Inclination (degrees)
Orbital Period (minutes)
Azimuth
Elevation
Range (km)
Doppler Factor

Next 0 passes for location: London (51.5072 / 0.1276)

Sorry there are no passes over London.
AMC-11 (GE-11)